This is the latest recevied weather packets stored in our database for station/object HJ3GNC-15. If no packets are shown the sender has not sent any weather packets the latest 10 day(s).
| Time | Temp. | Humidity | Pressure | Rain* | Wind** | Luminosity | Snow |
|---|---|---|---|---|---|---|---|
| 1777588981 | 24.44° C | 82% | 1009 hPa | 0 mm | - | - | - |
| 1777587053 | 23.89° C | 82% | 1008 hPa | 0 mm | - | - | - |
| 1777586083 | 23.33° C | 82% | 1008 hPa | 0 mm | - | - | - |
| 1777585136 | 22.78° C | 82% | 1008 hPa | 0 mm | - | - | - |
| 1777584193 | 22.22° C | 82% | 1007 hPa | 0 mm | - | - | - |
| 1777583252 | 21.67° C | 82% | 1007 hPa | 0 mm | - | - | - |
| 1777582310 | 21.11° C | 82% | 1008 hPa | 0 mm | - | - | - |
| 1777581363 | 26.67° C | 78% | 1008 hPa | 0 mm | - | - | - |
| 1777580418 | 26.11° C | 78% | 1007 hPa | 0 mm | - | - | - |
| 1777579472 | 25.56° C | 78% | 1008 hPa | 0 mm | - | - | - |
| 1777578529 | 25° C | 78% | 1008 hPa | 0 mm | - | - | - |
| 1777577588 | 24.44° C | 78% | 1008 hPa | 0 mm | - | - | - |
| 1777576637 | 23.89° C | 78% | 1008 hPa | 0 mm | - | - | - |
| 1777575682 | 23.33° C | 78% | 1008 hPa | 0 mm | - | - | - |
| 1777574740 | 22.78° C | 78% | 1008 hPa | 0 mm | - | - | - |
| 1777573797 | 22.22° C | 75% | 1009 hPa | 0 mm | - | - | - |
| 1777572854 | 22.22° C | 77% | 1009 hPa | 0 mm | - | - | - |
| 1777571913 | 21.11° C | 75% | 1010 hPa | 0 mm | - | - | - |
| 1777570969 | 21.11° C | 75% | 1010 hPa | 0 mm | - | - | - |
| 1777569991 | 21.11° C | 71% | 1011 hPa | 0 mm | - | - | - |
| 1777569049 | 21.11° C | 72% | 1011 hPa | 0 mm | - | - | - |
| 1777568101 | 21.11° C | 73% | 1011 hPa | 0 mm | - | - | - |
| 1777567158 | 21.11° C | 73% | 1011 hPa | 0 mm | - | - | - |
| 1777566206 | 20° C | 72% | 1012 hPa | 0 mm | - | - | - |
| 1777565254 | 20° C | 74% | 1012 hPa | 0 mm | - | - | - |
* Rain latest hour (hover to see other rain measurements)
** Current wind speed in m/s (hover to see current wind gust speed)